Home   Weather   Lidzbark Warmiński   Past weeks

Flag for Poland Past Weather in Lidzbark Warmiński, Poland — Yesterday and Last 2 Weeks

Now
58 °F

Cool.


Feels Like: 59 °F
Forecast: 49 / 64 °F
Wind: 3 mph from Southwest

Location: Ketrzyn

Current Time: Sep 30, 2016 at 5:16:26 AM

Latest Report: Sep 30, 2016 at 3:00 AM


Visibility: 25 mi

Pressure: 29.74 "Hg

Humidity: 75%

Dew Point: 51 °F

Location of Lidzbark WarmińskiLocation

Past Weather in Lidzbark Warmiński — Graph

°F

Lidzbark Warmiński Temperature Yesterday

Maximum temperature yesterday: 67 °F (at 5:00 PM)
Minimum temperature yesterday: 55 °F (at 7:00 AM)
Average temperature yesterday: 61 °F

High & Low Weather Summary for the Past Weeks

 TemperatureHumidityPressure
High70 °F (Sep 15, 4:00 PM)99% (Sep 23, 6:00 AM)30.41 "Hg (Sep 23, 6:00 AM)
Low38 °F (Sep 27, 5:00 AM)46% (Sep 15, 5:00 PM)29.74 "Hg (Sep 30, 3:00 AM)
Average53 °F80%30.13 "Hg
* Reported Sep 15 3:00 AM — Sep 30 3:00 AM, Lidzbark Warmiński, Weather by CustomWeather, © 2016

Note: Actual official high and low records may vary slightly from our data, if they occured in-between our weather recording intervals... More about our weather records

Advertising

Lidzbark Warmiński Weather History for the Previous 24 Hours

Scroll right to see more
 ConditionsComfort  
Time TempWeatherWind HumidityBarometerVisibility
3:00 AM
Fri, Sep 30
58 °FCool.3 mph75%29.74 "Hg25 mi
2:00 AM59 °FCool.5 mph74%29.74 "Hg31 mi
1:00 AM59 °FCool.3 mph77%29.76 "Hg31 mi
12:00 AM60 °FCool.5 mph80%29.77 "Hg28 mi
11:00 PM
Thu, Sep 29
61 °FCool.3 mph80%29.78 "Hg15 mi
10:00 PM63 °FMild.5 mph79%29.78 "Hg25 mi
9:00 PM62 °FMild.3 mph79%29.79 "Hg25 mi
8:00 PM63 °FMild.5 mph79%29.80 "Hg19 mi
7:00 PM64 °FMild.5 mph79%29.80 "Hg19 mi
6:00 PM66 °FMild.6 mph74%29.81 "Hg19 mi
5:00 PM67 °FMild.7 mph72%29.82 "Hg19 mi
4:00 PM66 °FMild.5 mph73%29.85 "Hg17 mi
3:00 PM66 °FMild.7 mph71%29.87 "Hg18 mi
2:00 PM65 °FMild.6 mph74%29.90 "Hg17 mi
1:00 PM64 °FMild.6 mph77%29.92 "Hg11 mi
9:00 AM59 °FCool.6 mph82%29.96 "Hg7 mi
8:00 AM56 °FCool.5 mph88%29.96 "Hg6 mi
7:00 AM55 °FCool.5 mph89%29.95 "Hg6 mi
6:00 AM55 °FRain showers. Overcast.5 mph89%29.95 "Hg5 mi
5:00 AM56 °FCool.6 mph87%29.94 "Hg7 mi
Weather by CustomWeather, © 2016

See weather overviewHow to use our weather pages